TimeMDT,TemperatureF,Dew PointF,Humidity,Sea Level PressureIn,VisibilityMPH,Wind Direction,Wind SpeedMPH,Gust SpeedMPH,PrecipitationIn,Events,Conditions,WindDirDegrees,DateUTC
12:53 AM,43.0,32.0,65,29.85,10.0,East,5.8,-,0.00,,Overcast,90,2013-04-12 06:53:00
1:53 AM,44.1,32.0,63,29.84,10.0,ESE,10.4,-,N/A,,Overcast,120,2013-04-12 07:53:00
2:53 AM,43.0,32.0,65,29.82,10.0,ESE,9.2,-,N/A,,Mostly Cloudy,110,2013-04-12 08:53:00
3:53 AM,41.0,32.0,70,29.82,10.0,ESE,9.2,-,N/A,,Mostly Cloudy,110,2013-04-12 09:53:00
4:53 AM,37.9,30.9,76,29.82,10.0,ESE,10.4,-,N/A,,Clear,110,2013-04-12 10:53:00
5:53 AM,39.0,32.0,76,29.83,10.0,Calm,Calm,-,N/A,,Mostly Cloudy,0,2013-04-12 11:53:00
6:53 AM,37.9,30.9,76,29.84,10.0,ENE,3.5,-,N/A,,Mostly Cloudy,70,2013-04-12 12:53:00
7:53 AM,42.1,33.1,70,29.87,10.0,SSE,3.5,-,N/A,,Scattered Clouds,150,2013-04-12 13:53:00
8:53 AM,45.0,33.1,63,29.89,10.0,Calm,Calm,-,N/A,,Scattered Clouds,0,2013-04-12 14:53:00
9:53 AM,48.9,33.1,54,29.90,10.0,Calm,Calm,-,N/A,,Scattered Clouds,0,2013-04-12 15:53:00
10:53 AM,53.1,33.1,47,29.89,10.0,West,3.5,-,N/A,,Partly Cloudy,270,2013-04-12 16:53:00
11:53 AM,55.9,30.0,37,29.88,10.0,WNW,6.9,-,N/A,,Partly Cloudy,290,2013-04-12 17:53:00
12:53 PM,57.9,27.0,31,29.86,10.0,West,8.1,-,N/A,,Scattered Clouds,260,2013-04-12 18:53:00
1:53 PM,60.1,23.0,24,29.83,10.0,NW,9.2,-,N/A,,Clear,320,2013-04-12 19:53:00
2:53 PM,62.1,19.9,20,29.80,10.0,Variable,5.8,-,N/A,,Clear,0,2013-04-12 20:53:00
3:53 PM,62.1,19.0,19,29.78,10.0,WSW,4.6,-,N/A,,Clear,240,2013-04-12 21:53:00
4:53 PM,63.0,16.0,16,29.77,10.0,NW,9.2,-,N/A,,Clear,320,2013-04-12 22:53:00
5:53 PM,63.0,16.0,16,29.77,10.0,NW,9.2,-,N/A,,Clear,310,2013-04-12 23:53:00
6:53 PM,61.0,18.0,19,29.77,10.0,North,12.7,-,N/A,,Clear,360,2013-04-13 00:53:00
7:53 PM,57.0,18.0,22,29.77,10.0,North,6.9,-,N/A,,Clear,360,2013-04-13 01:53:00
8:53 PM,48.0,17.1,29,29.81,10.0,Calm,Calm,-,N/A,,Clear,0,2013-04-13 02:53:00
9:53 PM,46.0,17.1,31,29.83,10.0,Calm,Calm,-,N/A,,Clear,0,2013-04-13 03:53:00
10:53 PM,44.1,16.0,32,29.82,10.0,East,5.8,-,N/A,,Clear,80,2013-04-13 04:53:00
11:53 PM,45.0,19.9,37,29.80,10.0,ESE,11.5,-,N/A,,Clear,110,2013-04-13 05:53:00